| time (UTC) | temp F | wind direction | speed MPH | gust MPH | rain 1hr in | rain 24hr in | rain mn in | humidity % | barometer mb |
| 20260505215004 | 48 | 330 | 3.0 | 15.0 | 0.00 | 0.00 | 0.00 | 39 | 1007.8 |
| 20260505214003 | 48 | 299 | 5.0 | 17.0 | 0.00 | 0.00 | 0.00 | 38 | 1007.8 |
| 20260505212004 | 48 | 300 | 7.0 | 16.0 | 0.00 | 0.00 | 0.00 | 37 | 1007.9 |
| 20260505211003 | 48 | 277 | 6.0 | 18.0 | 0.00 | 0.00 | 0.00 | 37 | 1007.6 |
| 20260505210004 | 48 | 316 | 6.0 | 14.0 | 0.00 | 0.00 | 0.00 | 38 | 1007.6 |
| 20260505205004 | 49 | 284 | 5.0 | 20.0 | 0.00 | 0.00 | 0.00 | 37 | 1007.5 |
| 20260505204004 | 49 | 274 | 8.0 | 18.0 | 0.00 | 0.00 | 0.00 | 36 | 1007.5 |
| 20260505203004 | 48 | 342 | 5.0 | 12.0 | 0.00 | 0.00 | 0.00 | 37 | 1007.5 |
| 20260505202004 | 48 | 287 | 4.0 | 16.0 | 0.00 | 0.00 | 0.00 | 37 | 1007.4 |
| 20260505201004 | 48 | 278 | 5.0 | 16.0 | 0.00 | 0.00 | 0.00 | 37 | 1007.4 |
| 20260505200003 | 49 | 257 | 7.0 | 20.0 | 0.00 | 0.00 | 0.00 | 37 | 1007.3 |
| 20260505195004 | 49 | 299 | 4.0 | 14.0 | 0.00 | 0.00 | 0.00 | 37 | 1007.2 |
| 20260505193003 | 49 | 280 | 8.0 | 16.0 | 0.00 | 0.00 | 0.00 | 37 | 1006.9 |
| 20260505192004 | 50 | 284 | 2.0 | 17.0 | 0.00 | 0.00 | 0.00 | 38 | 1006.8 |
| 20260505191004 | 50 | 340 | 5.0 | 14.0 | 0.00 | 0.00 | 0.00 | 36 | 1006.8 |
| 20260505190004 | 50 | 319 | 6.0 | 12.0 | 0.00 | 0.00 | 0.00 | 38 | 1006.6 |
| 20260505185004 | 50 | 286 | 6.0 | 13.0 | 0.00 | 0.00 | 0.00 | 37 | 1006.8 |
| 20260505184003 | 50 | 331 | 5.0 | 14.0 | 0.00 | 0.00 | 0.00 | 36 | 1006.6 |
| 20260505183004 | 53 | 351 | 6.0 | 12.0 | 0.00 | 0.00 | 0.00 | 33 | 1006.3 |
| 20260505182004 | 50 | 299 | 6.0 | 20.0 | 0.00 | 0.00 | 0.00 | 37 | 1006.3 |
| 20260505181004 | 49 | 266 | 3.0 | 14.0 | 0.00 | 0.00 | 0.00 | 39 | 1006.3 |
| 20260505180004 | 50 | 334 | 4.0 | 13.0 | 0.00 | 0.00 | 0.00 | 40 | 1006.0 |
| 20260505175004 | 48 | 265 | 6.0 | 13.0 | 0.00 | 0.00 | 0.00 | 39 | 1006.1 |
| 20260505174004 | 48 | 274 | 5.0 | 14.0 | 0.00 | 0.00 | 0.00 | 40 | 1006.1 |
| 20260505172004 | 48 | 278 | 6.0 | 17.0 | 0.00 | 0.00 | 0.00 | 40 | 1005.8 |
| 20260505171003 | 48 | 279 | 5.0 | 18.0 | 0.00 | 0.00 | 0.00 | 41 | 1005.7 |
| 20260505165004 | 47 | 286 | 7.0 | 14.0 | 0.00 | 0.00 | 0.00 | 40 | 1005.7 |
| 20260505164004 | 46 | 255 | 10.0 | 22.0 | 0.00 | 0.00 | 0.00 | 42 | 1005.9 |
| 20260505163005 | 49 | 230 | 5.0 | 12.0 | 0.00 | 0.00 | 0.00 | 39 | 1005.5 |
| 20260505161004 | 47 | 266 | 6.0 | 18.0 | 0.00 | 0.00 | 0.00 | 43 | 1005.7 |
| 20260505153004 | 47 | 261 | 3.0 | 8.0 | 0.00 | 0.00 | 0.00 | 43 | 1005.9 |
| 20260505152003 | 47 | 211 | 5.0 | 16.0 | 0.00 | 0.00 | 0.00 | 44 | 1005.8 |
| 20260505125003 | 41 | 317 | 3.0 | 8.0 | 0.00 | 0.00 | 0.00 | 59 | 1005.1 |
| 20260505124004 | 40 | 301 | 3.0 | 7.0 | 0.00 | 0.00 | 0.00 | 61 | 1005.0 |
| 20260505123004 | 39 | 253 | 2.0 | 5.0 | 0.00 | 0.00 | 0.00 | 61 | 1005.1 |
| 20260505121004 | 38 | 260 | 3.0 | 7.0 | 0.00 | 0.00 | 0.00 | 62 | 1005.1 |
| 20260505120005 | 38 | 267 | 3.0 | 7.0 | 0.00 | 0.00 | 0.00 | 63 | 1005.1 |
| 20260505115004 | 37 | 258 | 1.0 | 5.0 | 0.00 | 0.00 | 0.00 | 65 | 1005.0 |
| 20260505114004 | 36 | 265 | 2.0 | 5.0 | 0.00 | 0.00 | 0.00 | 67 | 1004.9 |
| 20260505112004 | 35 | 269 | 1.0 | 5.0 | 0.00 | 0.00 | 0.00 | 68 | 1004.7 |
| 20260505111004 | 34 | 284 | 1.0 | 2.0 | 0.00 | 0.00 | 0.00 | 70 | 1004.5 |
| 20260505102004 | 33 | 330 | 1.0 | 2.0 | 0.00 | 0.00 | 0.00 | 68 | 1004.0 |
| 20260505101004 | 35 | 301 | 0.0 | 3.0 | 0.00 | 0.00 | 0.00 | 65 | 1004.1 |
| 20260505100003 | 34 | 289 | 2.0 | 2.0 | 0.00 | 0.00 | 0.00 | 66 | 1003.9 |
| 20260505095003 | 34 | 321 | 1.0 | 2.0 | 0.00 | 0.00 | 0.00 | 66 | 1003.7 |
| 20260505093004 | 36 | 308 | 1.0 | 3.0 | 0.00 | 0.00 | 0.00 | 62 | 1003.3 |
| 20260505092004 | 36 | 306 | 1.0 | 2.0 | 0.00 | 0.00 | 0.00 | 62 | 1003.3 |
| 20260505091004 | 37 | 292 | 1.0 | 5.0 | 0.00 | 0.00 | 0.00 | 61 | 1003.2 |
| 20260505090003 | 37 | 271 | 1.0 | 2.0 | 0.00 | 0.00 | 0.00 | 60 | 1003.2 |
| 20260505085004 | 37 | 278 | 1.0 | 3.0 | 0.00 | 0.00 | 0.00 | 59 | 1002.9 |
| 20260505084004 | 38 | 317 | 1.0 | 2.0 | 0.00 | 0.00 | 0.00 | 59 | 1002.9 |
| 20260505083003 | 39 | 308 | 1.0 | 2.0 | 0.00 | 0.00 | 0.00 | 56 | 1002.8 |
| 20260505082003 | 39 | 349 | 1.0 | 1.0 | 0.00 | 0.00 | 0.00 | 55 | 1002.9 |
| 20260505080004 | 41 | 292 | 1.0 | 3.0 | 0.00 | 0.00 | 0.00 | 51 | 1002.7 |
| 20260505075003 | 41 | 314 | 0.0 | 3.0 | 0.00 | 0.00 | 0.00 | 51 | 1002.8 |
| 20260505074004 | 41 | 305 | 1.0 | 5.0 | 0.00 | 0.00 | 0.00 | 50 | 1002.7 |
| 20260505073004 | 41 | 293 | 2.0 | 3.0 | 0.00 | 0.00 | 0.00 | 50 | 1002.7 |
| 20260505072004 | 41 | 24 | 1.0 | 3.0 | 0.00 | 0.00 | 0.00 | 51 | 1002.8 |
| 20260505071004 | 42 | 299 | 1.0 | 3.0 | 0.00 | 0.00 | 0.00 | 49 | 1002.9 |
| 20260505070004 | 42 | 308 | 3.0 | 6.0 | 0.00 | 0.00 | 0.00 | 49 | 1002.9 |
| 20260505065003 | 42 | 304 | 3.0 | 6.0 | 0.00 | 0.00 | 0.00 | 49 | 1002.8 |
| 20260505064004 | 42 | 342 | 2.0 | 9.0 | 0.00 | 0.00 | 0.00 | 49 | 1002.7 |
| 20260505063004 | 43 | 334 | 3.0 | 9.0 | 0.00 | 0.00 | 0.00 | 48 | 1002.7 |
| 20260505061004 | 43 | 294 | 2.0 | 5.0 | 0.00 | 0.00 | 0.00 | 49 | 1002.8 |
| 20260505060004 | 44 | 278 | 1.0 | 7.0 | 0.00 | 0.00 | 0.00 | 48 | 1002.6 |
| 20260505055004 | 44 | 279 | 4.0 | 14.0 | 0.00 | 0.00 | 0.00 | 47 | 1002.5 |
| 20260505054004 | 44 | 265 | 3.0 | 15.0 | 0.00 | 0.00 | 0.00 | 47 | 1002.5 |
| 20260505053004 | 45 | 296 | 6.0 | 15.0 | 0.00 | 0.00 | 0.00 | 46 | 1002.4 |
| 20260505052003 | 45 | 319 | 3.0 | 10.0 | 0.00 | 0.00 | 0.00 | 48 | 1002.4 |
| 20260505051004 | 46 | 275 | 5.0 | 8.0 | 0.00 | 0.00 | 0.00 | 50 | 1002.1 |
| 20260505041003 | 47 | 17 | 3.0 | 13.0 | 0.00 | 0.00 | 0.00 | 51 | 1001.0 |
| 20260505040005 | 47 | 343 | 3.0 | 12.0 | 0.00 | 0.00 | 0.00 | 50 | 1000.5 |
| 20260505035004 | 47 | 4 | 1.0 | 5.0 | 0.00 | 0.00 | 0.00 | 49 | 1000.2 |
| 20260505034004 | 48 | 310 | 3.0 | 7.0 | 0.00 | 0.00 | 0.00 | 48 | 1000.1 |
| 20260505031004 | 49 | 338 | 2.0 | 12.0 | 0.00 | 0.00 | 0.00 | 49 | 999.9 |
| 20260505030004 | 49 | 342 | 2.0 | 7.0 | 0.00 | 0.00 | 0.00 | 48 | 999.8 |
| 20260505024004 | 50 | 0 | 1.0 | 6.0 | 0.00 | 0.00 | 0.00 | 48 | 999.8 |
| 20260505023004 | 51 | 86 | 2.0 | 10.0 | 0.00 | 0.00 | 0.00 | 47 | 999.3 |
| 20260505022003 | 51 | 332 | 3.0 | 12.0 | 0.00 | 0.00 | 0.00 | 48 | 999.3 |
| 20260505021004 | 52 | 351 | 2.0 | 10.0 | 0.00 | 0.00 | 0.00 | 47 | 999.1 |
| 20260505020004 | 53 | 329 | 3.0 | 12.0 | 0.00 | 0.00 | 0.00 | 46 | 998.8 |
| 20260505015004 | 53 | 16 | 2.0 | 9.0 | 0.00 | 0.00 | 0.00 | 46 | 998.3 |
| 20260505013004 | 55 | 343 | 5.0 | 10.0 | 0.00 | 0.00 | 0.00 | 44 | 997.9 |
| 20260505012004 | 56 | 6 | 2.0 | 7.0 | 0.00 | 0.00 | 0.00 | 44 | 997.7 |
| 20260505011004 | 57 | 341 | 5.0 | 7.0 | 0.00 | 0.00 | 0.00 | 43 | 997.4 |
| 20260505004003 | 61 | 329 | 2.0 | 16.0 | 0.00 | 0.00 | 0.00 | 38 | 996.3 |
| 20260505002004 | 62 | 309 | 5.0 | 10.0 | 0.00 | 0.00 | 0.00 | 35 | 995.7 |
| 20260505001003 | 63 | 321 | 5.0 | 23.0 | 0.00 | 0.00 | 0.00 | 35 | 995.5 |
| 20260505000004 | 63 | 321 | 5.0 | 15.0 | 0.00 | 0.00 | 0.00 | 34 | 995.5 |
| 20260504235003 | 64 | 270 | 7.0 | 14.0 | 0.00 | 0.00 | 0.00 | 33 | 995.5 |
| 20260504234004 | 64 | 307 | 5.0 | 15.0 | 0.00 | 0.00 | 0.00 | 33 | 995.4 |
| 20260504233004 | 65 | 267 | 9.0 | 17.0 | 0.00 | 0.00 | 0.00 | 32 | 995.2 |
| 20260504231004 | 66 | 318 | 7.0 | 17.0 | 0.00 | 0.00 | 0.00 | 30 | 995.0 |
| 20260504230004 | 67 | 327 | 6.0 | 16.0 | 0.00 | 0.00 | 0.00 | 29 | 994.9 |
| 20260504225004 | 66 | 284 | 8.0 | 25.0 | 0.00 | 0.00 | 0.00 | 30 | 995.1 |
| 20260504221004 | 68 | 289 | 4.0 | 14.0 | 0.00 | 0.00 | 0.00 | 29 | 994.4 |